• In United Kingdom
  • List of Countries
  • For 7 days
  • Water Temperature
  • Satellite Maps
  • Weather Map
  • Weather Widgets
  • user-avatar
    Login

    Hourly Weather Townsville

    Today, 29 May, Monday

    Time Temperature Precipitation Wind Pressure Humidity
    00:00 +19°C° 0 mm 2 mps 756 mmHg 96%
    01:00 +19°C° 0 mm 2 mps 756 mmHg 96%
    02:00 +19°C° 0 mm 2 mps 756 mmHg 97%
    03:00 +18°C° 0 mm 2 mps 756 mmHg 97%
    04:00 +18°C° 0 mm 2 mps 756 mmHg 98%
    05:00 +18°C° 0 mm 2 mps 756 mmHg 98%
    06:00 +18°C° 0 mm 3 mps 756 mmHg 98%
    07:00 +18°C° 0 mm 3 mps 756 mmHg 97%
    08:00 +21°C° 0 mm 3 mps 756 mmHg 88%
    09:00 +24°C° 0 mm 3 mps 757 mmHg 78%
    10:00 +26°C° 0 mm 3 mps 757 mmHg 68%
    11:00 +27°C° 0 mm 3 mps 756 mmHg 62%
    12:00 +28°C° 0 mm 3 mps 756 mmHg 56%
    13:00 +29°C° 0 mm 3 mps 756 mmHg 49%
    14:00 +29°C° 0 mm 3 mps 755 mmHg 51%
    15:00 +28°C° 0 mm 3 mps 755 mmHg 52%
    16:00 +28°C° 0 mm 3 mps 755 mmHg 54%
    17:00 +26°C° 0 mm 3 mps 755 mmHg 63%
    18:00 +24°C° 0 mm 3 mps 756 mmHg 73%
    19:00 +21°C° 0 mm 3 mps 756 mmHg 83%
    20:00 +21°C° 0 mm 3 mps 756 mmHg 83%
    21:00 +21°C° 0 mm 3 mps 757 mmHg 84%
    22:00 +21°C° 0 mm 3 mps 757 mmHg 85%
    23:00 +21°C° 0 mm 3 mps 757 mmHg 85%

    Tomorrow, 30 May, Tuesday

    Time Temperature Precipitation Wind Pressure Humidity
    00:00 +20°C° 0 mm 3 mps 757 mmHg 84%
    01:00 +20°C° 0 mm 3 mps 757 mmHg 84%
    02:00 +20°C° 0 mm 3 mps 756 mmHg 84%
    03:00 +19°C° 0 mm 3 mps 756 mmHg 84%
    04:00 +19°C° 0 mm 3 mps 756 mmHg 83%
    05:00 +19°C° 0 mm 4 mps 756 mmHg 84%
    06:00 +18°C° 0 mm 4 mps 757 mmHg 84%
    07:00 +18°C° 0 mm 4 mps 757 mmHg 85%
    08:00 +20°C° 0 mm 4 mps 757 mmHg 77%
    09:00 +22°C° 0 mm 4 mps 758 mmHg 69%
    10:00 +25°C° 0 mm 4 mps 758 mmHg 62%
    11:00 +26°C° 0 mm 4 mps 757 mmHg 57%
    12:00 +27°C° 0 mm 4 mps 757 mmHg 53%
    13:00 +29°C° 0 mm 4 mps 756 mmHg 48%
    14:00 +28°C° 0 mm 4 mps 756 mmHg 50%
    15:00 +28°C° 0 mm 4 mps 756 mmHg 53%
    16:00 +28°C° 0 mm 5 mps 755 mmHg 55%
    17:00 +26°C° 0 mm 5 mps 756 mmHg 64%
    18:00 +23°C° 0 mm 5 mps 756 mmHg 74%
    19:00 +21°C° 0 mm 5 mps 756 mmHg 83%
    20:00 +21°C° 0 mm 4 mps 757 mmHg 84%
    21:00 +21°C° 0 mm 4 mps 757 mmHg 85%
    22:00 +21°C° 0 mm 4 mps 757 mmHg 85%
    23:00 +20°C° 0 mm 4 mps 757 mmHg 85%

    Day after tomorrow, 31 May, Wednesday

    Time Temperature Precipitation Wind Pressure Humidity
    00:00 +20°C° 0 mm 4 mps 757 mmHg 85%
    01:00 +20°C° 0 mm 4 mps 757 mmHg 85%
    02:00 +19°C° 0 mm 4 mps 756 mmHg 87%
    03:00 +19°C° 0 mm 4 mps 756 mmHg 88%
    04:00 +18°C° 0 mm 4 mps 756 mmHg 90%
    05:00 +18°C° 0 mm 4 mps 756 mmHg 91%
    06:00 +18°C° 0 mm 4 mps 756 mmHg 92%
    07:00 +18°C° 0 mm 4 mps 757 mmHg 93%
    08:00 +20°C° 0 mm 4 mps 757 mmHg 85%
    09:00 +22°C° 0 mm 5 mps 757 mmHg 77%
    10:00 +25°C° 0 mm 5 mps 758 mmHg 69%
    11:00 +26°C° 0 mm 5 mps 757 mmHg 65%
    12:00 +27°C° 0 mm 4 mps 757 mmHg 61%
    13:00 +28°C° 0 mm 4 mps 756 mmHg 57%
    14:00 +28°C° 0.1 mm 4 mps 756 mmHg 61%
    15:00 +27°C° 0.1 mm 4 mps 756 mmHg 64%
    16:00 +27°C° 0.1 mm 4 mps 756 mmHg 68%
    17:00 +26°C° 0.1 mm 5 mps 756 mmHg 71%
    18:00 +25°C° 0.1 mm 5 mps 757 mmHg 74%
    19:00 +23°C° 0.1 mm 5 mps 757 mmHg 77%
    20:00 +23°C° 0.1 mm 6 mps 758 mmHg 78%
    21:00 +22°C° 0.1 mm 6 mps 758 mmHg 79%
    22:00 +22°C° 0.1 mm 6 mps 758 mmHg 80%
    23:00 +21°C° 0.1 mm 6 mps 758 mmHg 79%

    1 June, Thursday

    Time Temperature Precipitation Wind Pressure Humidity
    00:00 +21°C° 0.1 mm 6 mps 758 mmHg 79%
    01:00 +20°C° 0.1 mm 6 mps 758 mmHg 79%
    02:00 +20°C° 0 mm 6 mps 758 mmHg 78%
    03:00 +19°C° 0 mm 6 mps 757 mmHg 77%
    04:00 +19°C° 0 mm 6 mps 757 mmHg 77%
    05:00 +17°C° 0.1 mm 6 mps 758 mmHg 75%
    06:00 +17°C° 0.1 mm 7 mps 758 mmHg 74%
    07:00 +16°C° 0.1 mm 7 mps 759 mmHg 73%
    08:00 +17°C° 0 mm 7 mps 759 mmHg 67%
    09:00 +20°C° 0 mm 7 mps 759 mmHg 60%
    10:00 +21°C° 0 mm 7 mps 760 mmHg 54%
    11:00 +22°C° 0 mm 7 mps 759 mmHg 52%
    12:00 +24°C° 0 mm 7 mps 758 mmHg 50%
    13:00 +26°C° 0 mm 6 mps 758 mmHg 48%
    14:00 +26°C° 0 mm 6 mps 758 mmHg 50%
    15:00 +26°C° 0 mm 6 mps 757 mmHg 52%
    16:00 +26°C° 0 mm 6 mps 757 mmHg 54%
    17:00 +23°C° 0 mm 6 mps 758 mmHg 61%
    18:00 +22°C° 0 mm 6 mps 758 mmHg 68%
    19:00 +20°C° 0 mm 7 mps 758 mmHg 74%
    20:00 +20°C° 0 mm 7 mps 759 mmHg 76%
    21:00 +18°C° 0 mm 7 mps 759 mmHg 78%
    22:00 +18°C° 0 mm 7 mps 759 mmHg 80%
    23:00 +18°C° 0 mm 7 mps 759 mmHg 82%

    2 June, Friday

    Time Temperature Precipitation Wind Pressure Humidity
    00:00 +18°C° 0 mm 7 mps 759 mmHg 84%
    01:00 +17°C° 0 mm 7 mps 758 mmHg 86%
    02:00 +17°C° 0 mm 7 mps 758 mmHg 87%
    03:00 +17°C° 0 mm 7 mps 758 mmHg 88%
    04:00 +17°C° 0 mm 7 mps 758 mmHg 89%
    05:00 +17°C° 0 mm 7 mps 758 mmHg 90%
    06:00 +16°C° 0 mm 7 mps 759 mmHg 91%
    07:00 +16°C° 0 mm 7 mps 759 mmHg 91%
    08:00 +18°C° 0 mm 7 mps 760 mmHg 85%
    09:00 +20°C° 0 mm 8 mps 760 mmHg 78%
    10:00 +22°C° 0 mm 8 mps 760 mmHg 72%
    11:00 +23°C° 0 mm 8 mps 760 mmHg 71%
    12:00 +23°C° 0 mm 8 mps 759 mmHg 69%
    13:00 +23°C° 0 mm 8 mps 759 mmHg 68%
    14:00 +23°C° 0 mm 8 mps 758 mmHg 67%
    15:00 +23°C° 0 mm 8 mps 758 mmHg 66%
    16:00 +24°C° 0 mm 8 mps 758 mmHg 64%
    17:00 +23°C° 0 mm 7 mps 758 mmHg 66%
    18:00 +22°C° 0 mm 7 mps 759 mmHg 67%
    19:00 +21°C° 0 mm 7 mps 759 mmHg 69%
    20:00 +20°C° 0 mm 7 mps 760 mmHg 74%
    21:00 +20°C° 0 mm 7 mps 760 mmHg 78%
    22:00 +18°C° 0 mm 7 mps 760 mmHg 83%
    23:00 +18°C° 0 mm 7 mps 760 mmHg 84%

    3 June, Saturday

    Time Temperature Precipitation Wind Pressure Humidity
    00:00 +17°C° 0 mm 7 mps 759 mmHg 85%
    01:00 +17°C° 0 mm 6 mps 759 mmHg 86%
    02:00 +17°C° 0.1 mm 6 mps 759 mmHg 85%
    03:00 +17°C° 0.1 mm 6 mps 759 mmHg 84%
    04:00 +19°C° 0.1 mm 6 mps 758 mmHg 83%
    05:00 +19°C° 0.1 mm 6 mps 759 mmHg 83%
    06:00 +19°C° 0.1 mm 6 mps 759 mmHg 83%
    07:00 +19°C° 0.1 mm 6 mps 759 mmHg 83%
    08:00 +20°C° 0.1 mm 6 mps 759 mmHg 80%
    09:00 +21°C° 0.1 mm 7 mps 760 mmHg 78%
    10:00 +21°C° 0.1 mm 7 mps 760 mmHg 75%
    11:00 +22°C° 0.1 mm 7 mps 759 mmHg 74%
    12:00 +22°C° 0.1 mm 7 mps 758 mmHg 74%
    13:00 +22°C° 0.1 mm 7 mps 758 mmHg 73%
    14:00 +22°C° 0.1 mm 7 mps 758 mmHg 72%
    15:00 +22°C° 0.1 mm 7 mps 758 mmHg 71%
    16:00 +23°C° 0.1 mm 7 mps 757 mmHg 69%
    17:00 +22°C° 0.1 mm 7 mps 758 mmHg 74%
    18:00 +20°C° 0.1 mm 7 mps 758 mmHg 79%
    19:00 +19°C° 0.1 mm 6 mps 758 mmHg 84%
    20:00 +19°C° 0 mm 6 mps 759 mmHg 85%
    21:00 +17°C° 0 mm 7 mps 759 mmHg 87%
    22:00 +17°C° 0 mm 7 mps 759 mmHg 88%
    23:00 +16°C° 0 mm 6 mps 758 mmHg 88%
    Show more